Location: Sungai Dangang
(2.7500°N, 113.8333°E)
Time: 23:04:54
(UTC+00:00)

Milstar 3 - Pass Details

Date: 16 May 2021
Orbit: 1089 x 5155 km, 28.3° (Epoch: 08 May)

Event Time Altitude Azimuth Distance (km) Brightness Sun altitude
Exits shadow 20:18:36 56° 225° (SW) 1,454 3.0 -27.7°
Maximum altitude 20:19:10 58° 207° (SSW) 1,463 3.1 -27.5°
Drops below altitude 10° 20:28:47 10° 130° (SE) 4,231 6.1 -25.3°
Sets 20:33:13 0° 126° (SE) 5,767 6.9 -24.3°
